www.pogodaiklimat.ru

Погода и климат >> Архив погоды >> Дания >> Вестер Ведстед


ПОГОДА в Вестер Ведстед

  • Прогноз погоды в Вестер Ведстед
  • Монитор погоды в Вестер Ведстед

АРХИВ ПОГОДЫ в Вестер Ведстед

Время (UTC), дата Ветер
(напр.,м/с)
 
Видим.   Явления Облачность Т
(С)
Тd
(С)
f
(%)
Тe
(С)
Тes
(С)
Комфортность P
(гПа)
Po
(гПа)
Тmin
(С)
Tmax
(С)
R
(мм)
R24
(мм)
S
(см)
22 15.07 СЗ 11 н/о н/о +14.2 +12.0 87 +11 +11 1014.7 1014.3
23 15.07 СЗ 9 н/о н/о +14.2 +11.8 85 +12 +12 1014.6 1014.1
00 16.07 СЗ 10 н/о н/о +14.1 +11.9 87 +11 +11 1014.5 1014.0
01 16.07 СЗ 8 н/о н/о +14.1 +12.3 89 +12 +12 1014.3 1013.9
02 16.07 СЗ 8 н/о н/о +14.1 +12.7 91 +12 +12 1014.1 1013.6
03 16.07 СЗ 9 н/о н/о +13.9 +12.9 94 +11 +11 1013.8 1013.3
04 16.07 СЗ 9 н/о н/о +14.0 +12.7 92 +11 +11 1013.6 1013.2
05 16.07 СЗ 9 н/о н/о +14.2 +12.4 89 +11 +11 1013.5 1013.0
06 16.07 СЗ 9 н/о н/о +14.4 +12.1 86 +12 +12 1013.6 1013.2 +13.7 +15.2
07 16.07 СЗ 10 н/о н/о +14.4 +11.7 84 +12 +12 1013.6 1013.2
08 16.07 СЗ 9 н/о н/о +14.8 +12.2 84 +12 +12 1013.7 1013.2
09 16.07 СЗ 9 н/о н/о +15.2 +12.4 83 +13 +13 1013.8 1013.4
10 16.07 СЗ 9 н/о н/о +15.2 +12.1 82 +13 +13 1014.1 1013.7
11 16.07 СЗ 8 н/о н/о +16.3 +13.6 84 +15 +15 1014.2 1013.8
12 16.07 З 9 н/о н/о +15.8 +13.2 85 +14 +14 1014.1 1013.7
14 16.07 З 9 н/о н/о +15.7 +13.4 86 +14 +14 1014.6 1014.2
15 16.07 З 10 н/о н/о +15.5 +13.2 86 +13 +13 1014.6 1014.2
16 16.07 З 9 н/о н/о +15.9 +13.3 85 +14 +14 1014.7 1014.3
17 16.07 СЗ 7 н/о н/о +16.0 +13.4 85 +14 +14 1014.8 1014.4
18 16.07 З 8 н/о н/о +15.5 +12.9 84 +14 +14 1014.9 1014.4 +14.3 +16.6
19 16.07 СЗ 7 н/о н/о +15.1 +12.7 86 +13 +13 1015.1 1014.7
20 16.07 СЗ 7 н/о н/о +14.4 +12.3 87 +12 +12 1015.5 1015.1
21 16.07 З 7 н/о н/о +14.1 +11.9 87 +12 +12 1015.7 1015.3
22 16.07 СЗ 7 н/о н/о +14.1 +11.9 87 +12 +12 1015.8 1015.3
23 16.07 СЗ 6 н/о н/о +13.8 +11.4 85 +12 +12 1015.9 1015.5
00 17.07 СЗ 5 н/о н/о +13.8 +11.3 85 +12 +12 1016.0 1015.5
01 17.07 С 5 н/о н/о +13.6 +11.2 85 +12 +12 1015.8 1015.4
02 17.07 С 4 н/о н/о +12.8 +10.7 87 +11 +11 1015.5 1015.1
03 17.07 СЗ 4 н/о н/о +13.3 +11.1 87 +12 +12 1015.6 1015.2
04 17.07 С 3 н/о н/о +13.1 +10.8 86 +12 +12 1015.6 1015.1
05 17.07 СЗ 3 н/о н/о +13.3 +10.8 85 +12 +12 1015.4 1014.9
06 17.07 СЗ 3 н/о н/о +13.7 +10.7 82 +13 +13 1015.3 1014.9 +12.7 +15.6
07 17.07 СЗ 3 н/о н/о +14.2 +10.8 80 +13 +13 1015.4 1015.0
08 17.07 С 2 н/о н/о +15.2 +11.2 77 +15 +15 1015.6 1015.2
09 17.07 З 2 н/о н/о +15.4 +11.3 77 +15 +15 1015.6 1015.1
10 17.07 З 2 н/о н/о +15.9 +11.4 75 +16 +16 1015.5 1015.1
11 17.07 З 3 н/о н/о +15.9 +11.8 77 +16 +16 1015.7 1015.2
12 17.07 З 4 н/о н/о +16.1 +12.1 77 +15 +15 1015.5 1015.1
13 17.07 З 4 н/о н/о +16.0 +12.0 77 +15 +15 1015.3 1014.8
14 17.07 ЮЗ 5 н/о н/о +16.1 +12.3 78 +15 +15 1015.1 1014.7
15 17.07 З 4 н/о н/о +16.3 +11.9 75 +16 +16 1014.9 1014.5
16 17.07 З 5 н/о н/о +16.3 +12.8 80 +15 +15 1014.6 1014.2
17 17.07 З 5 н/о н/о +16.0 +12.9 82 +15 +15 1014.2 1013.8
18 17.07 З 5 н/о н/о +15.8 +13.2 85 +15 +15 1014.3 1013.8 +13.7 +16.9
19 17.07 З 4 н/о н/о +15.6 +13.1 85 +15 +15 1014.3 1013.9
20 17.07 З 4 н/о н/о +15.8 +13.5 86 +15 +15 1014.2 1013.8
21 17.07 З 2 н/о н/о +15.1 +12.6 85 +15 +15 1014.1 1013.7
22 17.07 З 1 н/о н/о +15.2 +13.0 87 +16 +16 1014.0 1013.6
23 17.07 ЮЗ 1 н/о н/о +14.9 +12.8 87 +15 +15 1013.9 1013.4
00 18.07 Ю 1 н/о н/о +14.6 +12.8 89 +15 +15 1013.7 1013.2
01 18.07 штиль 0 н/о н/о +14.3 +12.8 91 +14 +14 1013.4 1012.9
02 18.07 В 2 н/о н/о +13.8 +12.6 92 +13 +13 1013.0 1012.6
03 18.07 ЮВ 3 н/о н/о +13.5 +12.4 93 +12 +12 1012.9 1012.4
04 18.07 ЮВ 2 н/о н/о +13.5 +12.5 94 +13 +13 1012.8 1012.4
05 18.07 ЮВ 3 н/о н/о +13.6 +12.7 94 +12 +12 1012.9 1012.4
06 18.07 ЮВ 3 н/о н/о +14.1 +12.9 92 +13 +13 1012.5 1012.1 +13.3 +16.1
07 18.07 ЮВ 3 н/о н/о +15.6 +13.4 87 +15 +15 1012.4 1011.9
08 18.07 Ю 3 н/о н/о +17.0 +13.9 82 +17 +17 1012.1 1011.6
09 18.07 ЮЗ 4 н/о н/о +18.3 +14.4 78 +19 +19 1012.0 1011.5
10 18.07 Ю 5 н/о н/о +19.5 +11.8 61 +21 +21 комфорт 1011.8 1011.4
11 18.07 ЮЗ 5 н/о н/о +20.2 +12.8 62 +22 +22 комфорт 1011.6 1011.1
12 18.07 Ю 6 н/о н/о +20.4 +13.6 65 +23 +23 комфорт 1011.5 1011.1
13 18.07 ЮЗ 7 н/о н/о +19.6 +14.5 72 +21 +21 комфорт 1011.5 1011.1
14 18.07 ЮЗ 6 н/о н/о +20.0 +14.6 71 +22 +22 комфорт 1011.3 1010.9
15 18.07 Ю 5 н/о н/о +20.2 +13.4 65 +22 +22 комфорт 1010.9 1010.5
16 18.07 Ю 5 н/о н/о +20.6 +12.4 59 +23 +23 комфорт 1010.7 1010.2
17 18.07 ЮВ 2 н/о н/о +20.4 +13.0 62 +23 +23 комфорт 1010.4 1009.9
18 18.07 ЮВ 2 н/о н/о +20.1 +12.3 61 +23 +23 комфорт 1010.0 1009.6 +14.1 +20.8
19 18.07 ЮВ 2 н/о н/о +19.5 +12.7 65 +21 +21 комфорт 1010.1 1009.7
20 18.07 В 3 н/о н/о +18.5 +12.4 68 +19 +19 1010.2 1009.8
21 18.07 В 3 н/о н/о +17.8 +13.0 73 +18 +18 1010.0 1009.6
22 18.07 З 6 н/о н/о +17.4 +14.8 85 +17 +17 1010.5 1010.1
23 18.07 З 4 н/о н/о +16.8 +15.1 90 +16 +16 1010.7 1010.3
00 19.07 СВ 1 н/о н/о +16.6 +14.9 90 +17 +17 1010.4 1009.9
01 19.07 В 2 н/о н/о +16.0 +14.9 93 +16 +16 1010.1 1009.6
02 19.07 ЮВ 1 н/о н/о +15.6 +14.8 95 +16 +16 1010.1 1009.7
03 19.07 СВ 1 н/о н/о +15.3 +14.5 95 +16 +16 1010.0 1009.5
04 19.07 ЮВ 1 н/о н/о +15.2 +14.6 96 +16 +16 1010.1 1009.7
05 19.07 З 6 н/о н/о +16.2 +15.2 94 +15 +15 1010.3 1009.8
06 19.07 З 5 н/о н/о +16.0 +14.6 91 +15 +15 1010.9 1010.5 +15.1 +20.2
07 19.07 СЗ 2 н/о н/о +16.1 +15.0 93 +16 +16 1011.2 1010.8
08 19.07 СЗ 4 н/о н/о +16.3 +14.8 91 +16 +16 1011.6 1011.2
09 19.07 СЗ 4 н/о н/о +17.1 +14.6 85 +17 +17 1011.9 1011.5
10 19.07 З 5 н/о н/о +17.4 +14.5 83 +17 +17 1012.3 1011.9
11 19.07 З 6 н/о н/о +17.6 +14.6 83 +17 +17 1012.6 1012.2
12 19.07 З 7 н/о н/о +17.8 +14.4 80 +17 +17 1013.1 1012.7
13 19.07 З 7 н/о н/о +17.6 +12.4 72 +17 +17 1013.5 1013.0
14 19.07 З 7 н/о н/о +17.8 +13.2 74 +17 +17 1013.7 1013.2
15 19.07 З 5 н/о н/о +17.9 +11.7 67 +17 +17 1013.7 1013.3
16 19.07 З 5 н/о н/о +18.0 +12.3 69 +18 +18 1013.6 1013.2
17 19.07 З 5 н/о н/о +17.8 +12.4 71 +17 +17 1013.7 1013.3
18 19.07 ЮЗ 4 н/о н/о +17.7 +11.8 68 +18 +18 1013.7 1013.2 +15.6 +18.3
19 19.07 ЮЗ 3 н/о н/о +17.8 +12.3 70 +18 +18 1013.7 1013.3
20 19.07 Ю 2 н/о н/о +17.4 +12.0 71 +18 +18 1013.9 1013.5
21 19.07 ЮВ 3 н/о н/о +15.3 +12.1 81 +15 +15 1013.8 1013.4
22 19.07 ЮВ 4 н/о н/о +13.4 +11.6 89 +12 +12 1014.0 1013.5
23 19.07 В 3 н/о н/о +13.8 +11.7 87 +13 +13 1013.5 1013.1
00 20.07 В 3 н/о н/о +13.8 +11.9 88 +13 +13 1013.2 1012.8
01 20.07 ЮВ 3 н/о н/о +14.4 +12.0 85 +13 +13 1012.9 1012.5
02 20.07 ЮВ 3 н/о н/о +14.5 +12.0 85 +14 +14 1012.7 1012.2
03 20.07 ЮВ 5 н/о н/о +15.1 +11.7 80 +14 +14 1012.2 1011.7
04 20.07 ЮВ 4 н/о н/о +15.5 +11.6 78 +15 +15 1011.9 1011.4
05 20.07 ЮВ 5 н/о н/о +15.7 +11.8 78 +15 +15 1011.5 1011.0
06 20.07 ЮВ 4 н/о н/о +16.6 +12.0 74 +16 +16 1011.2 1010.7 +13.3 +18.1
07 20.07 ЮВ 6 н/о н/о +17.9 +12.1 69 +17 +17 1010.9 1010.4
08 20.07 ЮВ 5 н/о н/о +19.5 +13.5 68 +21 +21 комфорт 1010.5 1010.1
09 20.07 ЮВ 7 н/о н/о +21.6 +13.2 59 +24 +24 комфорт 1010.3 1009.8
10 20.07 ЮВ 7 н/о н/о +22.6 +13.0 55 +26 +26 жарко 1009.9 1009.4
11 20.07 ЮВ 8 н/о н/о +23.6 +13.2 52 +26 +26 жарко 1009.4 1009.0
12 20.07 Ю 8 н/о н/о +24.7 +13.3 49 +27 +27 жарко 1009.1 1008.7
13 20.07 Ю 8 н/о н/о +24.0 +13.4 51 +26 +26 жарко 1009.0 1008.6
14 20.07 ЮЗ 12 н/о н/о +20.0 +16.0 78 +22 +22 комфорт 1009.4 1008.9
15 20.07 ЮЗ 8 н/о н/о +17.5 +16.3 93 +16 +16 1009.8 1009.3
16 20.07 Ю 4 н/о н/о +18.0 +15.8 87 +18 +18 1009.5 1009.1
17 20.07 Ю 3 н/о н/о +18.3 +16.3 88 +19 +19 1009.6 1009.2
18 20.07 Ю 4
{16}
н/о н/о +18.4 +16.4 88 +19 +19 1009.5 1009.1 +16.5 +25.1
19 20.07 Ю 6 н/о н/о +18.6 +16.3 86 +19 +19 1009.7 1009.3
20 20.07 ЮЗ 4 н/о н/о +18.2 +15.9 86 +18 +18 1009.6 1009.2
21 20.07 Ю 5 н/о н/о +17.6 +16.1 91 +17 +17 1009.9 1009.5
22 20.07 Ю 5 н/о н/о +16.4 +15.5 94 +15 +15 1009.7 1009.3
23 20.07 ЮВ 4 н/о н/о +16.9 +16.1 95 +16 +16 1010.0 1009.6
00 21.07 Ю 9 н/о н/о +17.9 +16.7 93 +17 +17 1010.1 1009.6
01 21.07 ЮЗ 9 н/о н/о +18.1 +16.6 91 +17 +17 1010.0 1009.5
02 21.07 ЮЗ 9 н/о н/о +18.0 +16.4 90 +17 +17 1009.9 1009.5
03 21.07 ЮЗ 9 н/о н/о +17.6 +16.3 92 +16 +16 1010.0 1009.6
04 21.07 ЮЗ 10 н/о н/о +17.4 +15.9 91 +16 +16 1010.2 1009.8
05 21.07 ЮЗ 10 н/о н/о +16.9 +15.2 90 +15 +15 1010.8 1010.4
06 21.07 ЮЗ 10 н/о н/о +16.7 +15.1 90 +15 +15 1011.6 1011.1 +16.3 +18.8
07 21.07 ЮЗ 10 н/о н/о +16.8 +15.1 90 +15 +15 1012.1 1011.7
08 21.07 ЮЗ 12 н/о н/о +16.9 +15.2 90 +15 +15 1012.9 1012.5
09 21.07 ЮЗ 11 н/о н/о +16.6 +15.0 90 +15 +15 1014.0 1013.5
10 21.07 З 11 н/о н/о +16.9 +15.0 89 +15 +15 1014.8 1014.4
11 21.07 З 11 н/о н/о +16.7 +14.9 89 +15 +15 1015.9 1015.4
12 21.07 З 12 н/о н/о +16.5 +14.4 87 +14 +14 1017.0 1016.6
13 21.07 З 11 н/о н/о +16.1 +13.7 86 +14 +14 1017.9 1017.5
14 21.07 З 11 н/о н/о +16.3 +13.3 82 +14 +14 1018.7 1018.2
15 21.07 З 9 н/о н/о +16.2 +13.1 82 +14 +14 1019.4 1018.9
16 21.07 З 7 н/о н/о +16.3 +12.7 79 +15 +15 1019.7 1019.3
17 21.07 З 8 н/о н/о +16.4 +13.1 81 +15 +15 1019.8 1019.4
18 21.07 З 7 н/о н/о +16.4 +13.2 81 +15 +15 1020.1 1019.7 +15.8 +17.1
19 21.07 З 7 н/о н/о +16.3 +13.5 83 +15 +15 1020.5 1020.0
20 21.07 З 6 н/о н/о +16.2 +13.9 86 +15 +15 1020.9 1020.5
21 21.07 З 5 н/о н/о +15.9 +13.7 87 +15 +15 1020.8 1020.3
22 21.07 З 4 н/о н/о +15.9 +14.1 89 +15 +15 1021.0 1020.5
23 21.07 З 5 н/о н/о +15.8 +14.5 92 +15 +15 1021.4 1020.9
00 22.07 ЮЗ 5 н/о н/о +15.6 +14.2 91 +14 +14 1021.3 1020.8
01 22.07 ЮЗ 6 н/о н/о +15.8 +14.4 91 +14 +14 1021.0 1020.6
02 22.07 ЮЗ 6 н/о н/о +15.8 +14.2 90 +14 +14 1020.8 1020.4
03 22.07 ЮЗ 7 н/о н/о +16.1 +14.2 88 +15 +15 1020.4 1020.0
04 22.07 ЮЗ 7 н/о н/о +16.2 +13.7 85 +15 +15 1020.0 1019.6
05 22.07 Ю 5 н/о н/о +15.9 +13.9 88 +15 +15 1019.9 1019.5
06 22.07 Ю 6 н/о н/о +16.4 +13.6 84 +15 +15 1020.2 1019.8 +15.6 +16.6
07 22.07 Ю 7 н/о н/о +16.3 +13.7 85 +15 +15 1020.3 1019.9
08 22.07 Ю 9 н/о н/о +16.7 +14.0 84 +15 +15 1020.1 1019.7
09 22.07 Ю 10 н/о н/о +16.1 +14.0 87 +14 +14 1020.0 1019.6
10 22.07 Ю 10 н/о н/о +15.6 +14.0 90 +13 +13 1019.9 1019.5
11 22.07 Ю 10 н/о н/о +16.1 +14.6 91 +14 +14 1019.5 1019.1
12 22.07 Ю 11 н/о н/о +15.6 +14.5 93 +13 +13 1019.1 1018.7
13 22.07 Ю 11 н/о н/о +16.1 +15.2 94 +14 +14 1018.6 1018.2
14 22.07 ЮЗ 10 н/о н/о +16.9 +16.1 95 +15 +15 1018.4 1017.9
15 22.07 ЮЗ 10 н/о н/о +17.3 +16.2 93 +16 +16 1018.4 1018.0
16 22.07 ЮЗ 11 н/о н/о +17.7 +16.3 92 +16 +16 1018.5 1018.1
17 22.07 ЮЗ 10 н/о н/о +17.7 +16.3 92 +16 +16 1018.5 1018.1
18 22.07 ЮЗ 10 н/о н/о +17.8 +16.4 92 +17 +17 1018.7 1018.3 +15.5 +17.9
19 22.07 ЮЗ 10 н/о н/о +17.8 +16.4 92 +17 +17 1019.0 1018.6
20 22.07 ЮЗ 9 н/о н/о +17.7 +16.4 92 +17 +17 1019.5 1019.0
21 22.07 ЮЗ 8 н/о н/о +17.6 +16.3 92 +17 +17 1019.9 1019.4
22 22.07 ЮЗ 9 н/о н/о +17.3 +16.2 93 +16 +16 1019.9 1019.4

 

Местоположение метеостанции Вестер Ведстед (Дания): широта 55.29 долгота 8.66 высота над уровнем моря 5 м.

В архиве по умолчанию представлена погода в Вестер Ведстед за последнюю неделю. Архивные данные за месяц целиком и за предыдущие месяцы, начиная с января 2011 года, Вы можете получить, выбрав интересующий диапазон дат из раскрывающегося списка и нажав кнопку "Ввод!".


*Определитесь, кто Вы:
робот инопланетянин человек

Внимание! Время в таблицах - всемирное. Для получения местного времени необходимо прибавить поправку, которая равна 1 ч.

Смотрите также архив погоды в соседних городах и на ближайших метеорологических станциях:

Погода в Рёмё (Дания) (14 км)
Погода в Эсбьерге (Дания) (27 км)
Погода в Листе (Германия) (34 км)
Погода в Аскове (Дания) (35 км)
Погода в Скрыдструпе (Дания) (39 км)
Погода в Вамдрупе (Дания) (45 км)
Погода на Мысе Blaavandshuk (Дания) (47 км)
Погода в Леке (Германия) (58 км)
Погода в Биллунде (Дания) (59 км)
Погода в Силструпе (Дания) (71 км)

Пояснения к столбцам:

Ветер - указаны скорость ветра в м/с - средняя за 10 мин, порывы в срок и между сроками (в фигурных скобках) и направление, откуда дует ветер: С - северный, СВ - северо-восточный, В - восточный, ЮВ - юго-восточный, Ю - южный, ЮЗ - юго-западный, З - западный, СЗ - северо-западный.
Видимость - горизонтальная дальность видимости в метрах или километрах. При видимости от 1 до 10 км при отсутствии осадков обычно наблюдается дымка, при ухудшении видимости до 1 км и менее - туман. В сухую погоду видимость может ухудшаться дымом, пылью или мглою.
Явления - указаны атмосферные явления, наблюдавшиеся в срок или в последний час перед сроком; фигурными скобками обозначены явления, наблюдавшиеся между сроками (за 1-3 часа до срока); квадратными скобками обозначены град или гололедные отложения с указанием их диаметра в мм.
Облачность - указаны через наклонную черту общая и нижняя облачность в баллах и высота нижней границы облаков в метрах; квадратными скобками обозначены формы облаков: Ci - перистые, Cs - перисто-слоистые, Cc - перисто-кучевые, Ac - высококучевые, As - высокослоистые, Sc - слоисто-кучевые, Ns - слоисто-дождевые, Cu - кучевые, Cb - кучево-дождевые. Подробнее классификацию облаков см. в Атласе облаков (PDF).
T - Температура воздуха - температура, измеренная на высоте 2 м над землей.
Td - Температура точки росы - температура, при понижении до которой содержащийся в воздухе водяной пар достигнет насыщения.
f - Относительная влажность воздуха - влажноcть воздуха, измеренная на высоте 2 м над землей.
Te - Эффективная температура - температура, которую ощущает одетый по сезону человек в тени. Характеристика душности погоды. При расчете учитывается влияние влажности воздуха и скорости ветра на теплоощущения человека.
Tes - Эффективная температура на солнце - температура, которую ощущает человек, с поправкой на солнечный нагрев. Характеристика знойности погоды. Зависит от высоты солнца над горизонтом, облачности и скорости ветра. Ночью, в пасмурную погоду, а также при ветре 12 м/с и более поправка равна нулю.
P - Атмосферное давление - приведенное к уровню моря атмосферное давление.
Po - Атмосферное давление - измеренное на уровне метеостанции атмосферное давление.
Tmin - Минимальная температура - минимум температуры воздуха на высоте 2 м над землей.
Tmax - Максимальная температура - максимум температуры воздуха на высоте 2 м над землей.
R - Количество осадков - Количество выпавших осадков за период времени, мм. При наведении курсора мыши на число - период времени, за который выпало указанное количество осадков.
R24 - Количество осадков - Количество выпавших осадков за 24 часа, мм.
S - Снежный покров - Высота снежного покрова, см. При наведении курсора мыши на число - состояние снежного покрова и степень покрытия местности в баллах.